AEST,Max TemperatureF,Mean TemperatureF,Min TemperatureF,Max Dew PointF,MeanDew PointF,Min DewpointF,Max Humidity, Mean Humidity, Min Humidity, Max Sea Level PressureIn, Mean Sea Level PressureIn, Min Sea Level PressureIn, Max VisibilityMiles, Mean VisibilityMiles, Min VisibilityMiles, Max Wind SpeedMPH, Mean Wind SpeedMPH, Max Gust SpeedMPH,PrecipitationIn, CloudCover, Events, WindDirDegrees
2013-3-1,89,84,78,79,76,73,94,78,57,29.73,29.66,29.59,19,7,6,16,9,,0.01,5,Rain,170
2013-3-2,87,82,77,81,78,75,100,85,70,29.69,29.59,29.50,19,8,6,14,4,,0.00,7,,342
2013-3-3,89,82,76,81,77,74,100,84,63,29.64,29.55,29.50,19,6,2,14,7,,0.87,6,Rain-Thunderstorm,197
2013-3-4,87,81,75,79,76,74,100,90,65,29.65,29.59,29.53,19,7,3,12,5,,0.35,6,Rain,215
2013-3-5,91,83,75,79,76,73,100,86,51,29.74,29.65,29.59,19,7,2,16,5,,0.35,4,Rain-Thunderstorm,207
2013-3-6,87,82,77,77,74,72,94,77,60,29.80,29.72,29.65,19,7,5,18,9,,0.04,5,Rain,169
2013-3-7,88,82,76,75,73,70,94,75,53,29.82,29.76,29.71,19,8,6,20,11,,0.00,5,Rain,163
2013-3-8,87,81,75,75,71,68,100,72,46,29.85,29.79,29.74,19,7,2,21,11,29,0.16,5,Rain,163
2013-3-9,86,80,73,75,71,67,89,75,56,29.86,29.79,29.74,19,7,3,17,11,28,0.16,4,Rain,163
2013-3-10,86,80,74,73,71,68,100,74,58,29.85,29.80,29.74,16,7,6,23,12,30,0.01,5,Rain,156
2013-3-11,87,80,73,74,70,68,95,74,47,29.84,29.78,29.71,19,6,2,23,12,30,0.31,4,Rain,160
2013-3-12,85,79,73,75,72,70,94,81,57,29.81,29.76,29.68,19,6,3,22,12,28,0.20,6,Rain,158
2013-3-13,80,76,72,75,72,68,100,85,72,29.75,29.70,29.65,16,6,2,18,12,30,0.59,6,Rain,167
2013-3-14,86,80,73,72,68,63,83,67,46,29.83,29.70,29.62,19,8,6,20,14,29,0.00,5,,168
2013-3-15,87,77,67,70,65,57,94,65,30,29.91,29.83,29.77,19,8,6,17,6,,0.00,3,,152
2013-3-16,89,78,66,72,67,63,94,70,39,29.92,29.86,29.80,19,8,6,17,6,,0.00,5,,162
2013-3-17,86,77,68,73,70,66,100,76,47,29.89,29.83,29.77,19,9,6,10,4,,0.00,4,,338
2013-3-18,89,78,66,72,67,59,94,69,32,29.87,29.80,29.74,19,11,6,10,4,,0.00,1,,360
2013-3-19,88,80,73,77,73,70,94,79,52,29.91,29.84,29.80,19,7,4,12,4,,0.20,5,Rain,203
2013-3-20,87,80,73,75,73,72,100,77,54,29.90,29.83,29.74,19,8,6,14,6,,0.02,3,,208
2013-3-21,87,80,74,77,74,71,100,81,59,29.91,29.83,29.77,19,6,4,14,7,,0.20,5,Rain,141
2013-3-22,84,80,75,79,75,72,100,87,74,29.96,29.88,29.83,16,6,2,26,11,39,0.63,5,Rain-Thunderstorm,175
2013-3-23,82,78,75,77,76,73,94,89,76,29.96,29.90,29.83,16,6,2,21,11,31,0.51,6,Rain,155
2013-3-24,86,81,76,76,74,72,94,82,61,29.94,29.88,29.83,19,7,2,23,14,32,0.47,5,Rain,162
2013-3-25,87,82,76,76,73,70,94,77,55,29.91,29.85,29.80,19,7,2,24,15,24,0.00,5,Rain,155
2013-3-26,86,81,76,73,72,71,89,76,54,29.91,29.85,29.80,19,7,6,23,13,,0.00,5,Rain,159
2013-3-27,86,78,71,75,72,66,100,82,52,29.95,29.88,29.83,19,6,2,21,11,,0.39,6,Rain,164
2013-3-28,86,79,72,75,71,68,94,79,54,29.96,29.90,29.83,19,7,4,20,12,,0.08,6,Rain,167
2013-3-29,85,78,72,73,70,63,100,75,41,29.96,29.89,29.83,19,6,2,17,11,,0.03,4,Rain,157
2013-3-30,86,78,71,73,69,66,94,74,46,29.95,29.89,29.80,19,7,4,17,10,,0.12,4,Rain,150
2013-3-31,85,78,71,70,68,66,94,72,46,29.96,29.90,29.83,19,7,6,13,9,,0.00,2,,127